Regional Weather Roundup
Issued by NWS

Home | Current Version | Previous Version | Text Only | Print | Product List | Glossary Off
Versions: 1 2 3 4 5 6 7 8 9 10 11 12 13 14 15 16 17 18 19 20 21 22 23 24 25 26 27 28 29 30 31 32 33 34 35 36 37 38 39 40 41 42 43 44 45 46 47 48 49 50

000
ASUS43 KLOT 251903
RWRIL

ILLINOIS REGIONAL WEATHER ROUNDUP
NATIONAL WEATHER SERVICE CHICAGO/ROMEOVILLE IL
200 PM CDT WED MAY 25 2016

NOTE: "FAIR" INDICATES FEW OR NO CLOUDS BELOW 12,000 FEET WITH NO
SIGNIFICANT WEATHER AND/OR OBSTRUCTIONS TO VISIBILITY.

* THESE STATIONS ARE NOT UNDER NWS QUALITY CONTROL. THEY ALSO MAY NOT
  REPORT WEATHER SUCH AS PRECIPITATION OR FOG.

ILZ001-002-007-009-015-016-024-252000-
NORTHWEST ILLINOIS

CITY           SKY/WX    TMP DP  RH WIND       PRES   REMARKS
MOLINE         CLOUDY    84  66  54 S13G20    29.90F HX  86
STERLING*      CLOUDY    86  61  42 S8        29.91S HX  86
$$

ILZ003-004-008-010-011-017-018-252000-
NORTH CENTRAL ILLINOIS

CITY           SKY/WX    TMP DP  RH WIND       PRES   REMARKS
ROCKFORD       CLOUDY    88  60  38 S17       29.92F HX  87
FREEPORT*      CLOUDY    83  58  43 S14G24    29.93F HX  83
ROCHELLE*      MOSUNNY   87  58  37 S20       29.92F HX  86
$$

ILZ005-006-012>014-019>023-252000-
NORTHEAST ILLINOIS

CITY           SKY/WX    TMP DP  RH WIND       PRES   REMARKS
CHICAGO-OHARE  PTSUNNY   84  62  47 SE9       29.94F HX  85
CHICAGO-MIDWAY PTSUNNY   86  59  39 S13G21    29.94F HX  85
AURORA         CLOUDY    85  63  47 MISG      29.94F HX  86
LANSING*       SUNNY     84  59  41 S13       29.97F HX  84
WAUKEGAN       CLOUDY    76  63  64 SE13      29.95F
DUPAGE AIRPORT PTSUNNY   84  62  47 S10       29.94F HX  85
WHEELING       PTSUNNY   83  60  45 S14       29.95F HX  83
NORTHERLY ISL    N/A     68  59  73 E9          N/A
NORTHERLY ISL    N/A     68  59  73 E9          N/A
$$

LMZ740>746-252000-
SOUTHERN LAKE MICHIGAN

STATION/POSITION SKY/WX   TEMP    WIND        PRES    VSBY  WAVE
                          AIR SEA DIR/SP/G                  HT/PER
                          (F)     (DEG/KT/KT) (MB)    (MI)  (FT/S)
SOUTHERN BUOY              55 51  170/  4/  4 1016.0          0
WILMETTE HARBOR            63 58  150/ 10/ 10   N/A           1/ 2
HARRISON CRIB              76     110/ 13/ 14   N/A
BURNHAM HARBOR             67      80/  9/ 11   N/A
CALUMET HARBOR             75      70/  6/ 11 1014.5F
BURNS HARBOR               82     190/  8/ 14 1015.6F
MICHIGAN CITY              80     200/  6/  8   N/A
MICHIGAN CITY 6N           68 61   10/  4/  8   N/A           0
ST. JOSEPH                 68 65  330/  4/  6   N/A           0
$$

ILZ025>027-034>036-040-047-049-050-058-095>099-252000-
WEST-CENTRAL ILLINOIS

CITY           SKY/WX    TMP DP  RH WIND       PRES   REMARKS
QUINCY         SUNNY     82  62  50 S7        29.94S HX  83
MACOMB*        CLOUDY    80  65  61 S10       29.95R HX  81
PITTSFIELD*    MOSUNNY   83  69  62 S13       29.95F HX  86
$$

ILZ028>032-037-038-041>044-048-051>054-059>061-252000-
CENTRAL ILLINOIS

CITY           SKY/WX    TMP DP  RH WIND       PRES   REMARKS
BLOOMINGTON    MOSUNNY   86  67  52 S18       29.96F HX  89
DECATUR        LGT RAIN  81  64  56 SW23G35   29.99R HX  82
PEORIA         MOSUNNY   85  65  51 S14G23    29.91F HX  86
SPRINGFIELD    PTSUNNY   81  66  60 S21       29.97R HX  83
TAYLORVILLE    NOT AVBL
$$

ILZ033-039-045-046-055>057-062-063-252000-
EAST-CENTRAL ILLINOIS

CITY           SKY/WX    TMP DP  RH WIND       PRES   REMARKS
CHAMPAIGN      MOSUNNY   87  63  44 S18G30    29.97F HX  88
MATTOON        MOSUNNY   78  64  61 SW16G25   30.00F HX  80
$$

ILZ079-100>102-252000-
SOUTHWEST ILLINOIS

CITY           SKY/WX    TMP DP  RH WIND       PRES   REMARKS
ALTON          PTSUNNY   75  68  78 SE14      29.98F
BELLEVILLE     PTSUNNY   78  72  80 E10G21    29.99F HX  81
CAHOKIA*       PTSUNNY   81  68  64 SE12      29.97F HX  84
SPARTA*        CLOUDY    76  67  75 SE12G21   30.03F
$$

ILZ064>066-069>071-074>076-080>082-084>086-088>090-092>094-252000-
SOUTH-CENTRAL ILLINOIS

CITY           SKY/WX    TMP DP  RH WIND       PRES   REMARKS
CARBONDALE     CLOUDY    74  66  76 S10       30.05F
EFFINGHAM*     MOSUNNY   79  65  62 S16G22    30.05R HX  81
MARION         CLOUDY    73  68  83 SE9       30.07F
MT. VERNON     CLOUDY    73  64  73 S12       30.08R
SALEM*         LGT RAIN  72  67  83 S7        30.04S
$$

ILZ067-068-072-073-078-083-087-091-252000-
SOUTHEAST ILLINOIS

CITY           SKY/WX    TMP DP  RH WIND       PRES   REMARKS
LAWRENCEVILLE  MOSUNNY   78  62  57 S15       30.05F HX  80
FLORA*         CLOUDY    80  67  65 S21       30.05R HX  82
HARRISBURG*    CLOUDY    70  67  92 SE10      30.09F
ROBINSON*      MOSUNNY   76  66  70 S12       30.04F
$$

ABBREVIATIONS USED IN REMARKS
   TC - TEMPERATURE IN CELSIUS
  WCI - WIND CHILL INDEX
   HX - HEAT INDEX
  VSB - VISIBILITY
$$





USA.gov is the U.S. government's official web portal to all federal, state and local government web resources and services.